Radiation Dose at Monitoring Post of Fukushima Daini Nuclear Power Station
Date,Time,MP-1(microSv/h),MP-2(microSv/h),MP-3(microSv/h),MP-4(microSv/h),MP-5(microSv/h),MP-6(microSv/h),MP-7(microSv/h),Wind Direction,Wind Velocity(m/s),Rain
2022/07/01,00:00,0.157,0.144,0.233,0.226,0.219,0.124,0.079,west-southwest,3.8,No
2022/07/01,00:10,0.156,0.146,0.232,0.224,0.218,0.124,0.080,west-southwest,3.0,No
2022/07/01,00:20,0.158,0.145,0.234,0.223,0.222,0.124,0.079,southwest,2.4,No
2022/07/01,00:30,0.159,0.146,0.234,0.225,0.220,0.124,0.079,southwest,2.7,No
2022/07/01,00:40,0.156,0.145,0.232,0.225,0.219,0.123,0.079,southwest,3.3,No
2022/07/01,00:50,0.157,0.145,0.232,0.223,0.218,0.123,0.079,southwest,2.7,No
2022/07/01,01:00,0.158,0.145,0.236,0.225,0.221,0.124,0.079,west-southwest,1.7,No
2022/07/01,01:10,0.157,0.146,0.233,0.226,0.221,0.123,0.079,west-southwest,1.3,No
2022/07/01,01:20,0.156,0.146,0.232,0.224,0.220,0.123,0.079,west,1.1,No
2022/07/01,01:30,0.159,0.146,0.234,0.223,0.217,0.124,0.079,west,1.2,No
2022/07/01,01:40,0.158,0.146,0.233,0.226,0.222,0.123,0.080,west-northwest,1.8,No
2022/07/01,01:50,0.157,0.146,0.233,0.225,0.220,0.123,0.080,west-northwest,4.3,No
2022/07/01,02:00,0.158,0.146,0.234,0.222,0.219,0.124,0.080,west-northwest,4.3,No
2022/07/01,02:10,0.157,0.146,0.234,0.225,0.219,0.123,0.079,west-northwest,4.2,No
2022/07/01,02:20,0.157,0.144,0.233,0.224,0.223,0.123,0.079,west-northwest,3.8,No
2022/07/01,02:30,0.157,0.145,0.235,0.223,0.220,0.125,0.079,west-northwest,3.1,No
2022/07/01,02:40,0.159,0.145,0.235,0.224,0.218,0.124,0.079,west,3.1,No
2022/07/01,02:50,0.157,0.145,0.232,0.226,0.218,0.122,0.079,west-northwest,3.3,No
2022/07/01,03:00,0.157,0.145,0.234,0.223,0.220,0.123,0.080,west-northwest,3.6,No
2022/07/01,03:10,0.158,0.146,0.235,0.223,0.220,0.123,0.080,west-northwest,4.0,No
2022/07/01,03:20,0.157,0.145,0.232,0.226,0.218,0.123,0.079,west-northwest,4.2,No
2022/07/01,03:30,0.156,0.146,0.232,0.225,0.217,0.124,0.080,west-northwest,4.3,No
2022/07/01,03:40,0.158,0.146,0.234,0.222,0.220,0.124,0.080,west-northwest,4.1,No
2022/07/01,03:50,0.158,0.145,0.233,0.224,0.220,0.122,0.079,west,5.2,No
2022/07/01,04:00,0.156,0.146,0.232,0.225,0.217,0.123,0.080,west,6.4,No
2022/07/01,04:10,0.157,0.145,0.236,0.223,0.218,0.123,0.079,west,6.3,No
2022/07/01,04:20,0.157,0.144,0.233,0.223,0.220,0.123,0.080,west,3.3,No
2022/07/01,04:30,0.156,0.146,0.231,0.226,0.220,0.124,0.079,west,3.2,No
2022/07/01,04:40,0.157,0.146,0.234,0.223,0.220,0.124,0.079,west,2.8,No
2022/07/01,04:50,0.158,0.145,0.233,0.222,0.219,0.123,0.080,west,3.7,No
2022/07/01,05:00,0.157,0.146,0.231,0.226,0.221,0.124,0.080,west,3.2,Yes
2022/07/01,05:10,0.157,0.145,0.235,0.224,0.219,0.124,0.079,west,2.3,No
2022/07/01,05:20,0.158,0.145,0.234,0.222,0.218,0.124,0.080,west-southwest,2.8,No
2022/07/01,05:30,0.158,0.147,0.232,0.225,0.219,0.124,0.080,southwest,1.7,No
2022/07/01,05:40,0.157,0.146,0.235,0.225,0.221,0.124,0.079,southwest,2.0,No
2022/07/01,05:50,0.160,0.145,0.234,0.223,0.220,0.122,0.079,west-southwest,2.4,No
2022/07/01,06:00,0.158,0.145,0.232,0.225,0.220,0.123,0.079,south-southwest,1.3,No
2022/07/01,06:10,0.157,0.144,0.234,0.225,0.219,0.124,0.078,-,CALM,No
2022/07/01,06:20,0.158,0.144,0.234,0.225,0.218,0.123,0.078,-,CALM,No
2022/07/01,06:30,0.159,0.144,0.232,0.223,0.219,0.124,0.079,northwest,1.4,No
2022/07/01,06:40,0.157,0.145,0.231,0.222,0.218,0.123,0.079,northwest,5.0,No
2022/07/01,06:50,0.155,0.144,0.231,0.221,0.218,0.122,0.079,west-northwest,5.5,No
2022/07/01,07:00,0.158,0.146,0.235,0.223,0.217,0.123,0.080,northwest,3.5,No
2022/07/01,07:10,0.158,0.145,0.234,0.224,0.218,0.123,0.080,northwest,3.9,No
2022/07/01,07:20,0.156,0.145,0.233,0.225,0.218,0.123,0.080,north-northwest,4.3,No
2022/07/01,07:30,0.156,0.145,0.233,0.223,0.217,0.123,0.079,north-northwest,2.8,No
2022/07/01,07:40,0.158,0.145,0.232,0.224,0.218,0.123,0.079,north,2.3,No
2022/07/01,07:50,0.158,0.145,0.231,0.223,0.218,0.124,0.079,north,1.7,No
2022/07/01,08:00,0.157,0.145,0.231,0.223,0.219,0.123,0.079,north-northeast,2.1,No
2022/07/01,08:10,0.157,0.145,0.232,0.224,0.218,0.122,0.078,east-northeast,3.1,No
2022/07/01,08:20,0.156,0.145,0.232,0.223,0.220,0.123,0.079,northeast,3.2,No
2022/07/01,08:30,0.156,0.145,0.232,0.223,0.219,0.122,0.078,northeast,2.4,No
2022/07/01,08:40,0.157,0.145,0.234,0.224,0.220,0.123,0.079,north-northeast,1.7,No
2022/07/01,08:50,0.158,0.145,0.235,0.224,0.221,0.123,0.078,north-northeast,1.7,No
2022/07/01,09:00,0.157,0.145,0.234,0.225,0.220,0.123,0.079,north-northeast,1.4,No
2022/07/01,09:10,0.157,0.144,0.235,0.226,0.220,0.123,0.079,north-northeast,1.0,No
2022/07/01,09:20,0.156,0.147,0.235,0.225,0.221,0.123,0.079,northeast,2.1,No
2022/07/01,09:30,0.157,0.146,0.234,0.226,0.220,0.123,0.078,east-northeast,2.7,No
2022/07/01,09:40,0.157,0.146,0.235,0.226,0.220,0.123,0.079,east-northeast,2.7,No
2022/07/01,09:50,0.157,0.146,0.234,0.227,0.221,0.124,0.079,east,3.2,Yes
2022/07/01,10:00,0.158,0.147,0.234,0.226,0.222,0.123,0.079,east,2.8,No
2022/07/01,10:10,0.157,0.147,0.235,0.226,0.220,0.123,0.078,east,2.7,No
2022/07/01,10:20,0.158,0.147,0.235,0.226,0.220,0.124,0.078,east-southeast,2.2,No
2022/07/01,10:30,0.158,0.146,0.234,0.227,0.220,0.124,0.079,east-southeast,1.7,No
2022/07/01,10:40,0.158,0.146,0.235,0.226,0.220,0.125,0.079,east-southeast,2.1,No
2022/07/01,10:50,0.158,0.146,0.235,0.227,0.221,0.124,0.079,east,2.4,No
2022/07/01,11:00,0.158,0.147,0.234,0.227,0.220,0.124,0.079,east-southeast,2.5,No
2022/07/01,11:10,0.158,0.146,0.234,0.227,0.221,0.124,0.079,east-southeast,2.1,No
2022/07/01,11:20,0.158,0.147,0.234,0.226,0.221,0.124,0.078,southeast,2.5,No
2022/07/01,11:30,0.157,0.147,0.234,0.225,0.220,0.124,0.079,east-southeast,1.5,No
2022/07/01,11:40,0.159,0.147,0.234,0.227,0.220,0.124,0.078,east-southeast,3.4,No
2022/07/01,11:50,0.159,0.146,0.234,0.226,0.219,0.124,0.078,east,3.5,No
2022/07/01,12:00,0.159,0.146,0.234,0.227,0.220,0.123,0.079,east-southeast,3.6,No
2022/07/01,12:10,0.157,0.146,0.234,0.226,0.219,0.123,0.079,east-southeast,3.7,No
2022/07/01,12:20,0.158,0.145,0.233,0.225,0.219,0.123,0.079,east-southeast,3.5,No
2022/07/01,12:30,0.157,0.146,0.232,0.226,0.220,0.123,0.079,east-southeast,2.6,No
2022/07/01,12:40,0.157,0.146,0.234,0.225,0.218,0.123,0.079,southeast,1.7,No
2022/07/01,12:50,0.159,0.147,0.234,0.226,0.219,0.123,0.079,east-southeast,2.0,No
2022/07/01,13:00,0.158,0.146,0.235,0.228,0.220,0.123,0.079,south-southeast,1.8,No
2022/07/01,13:10,0.158,0.146,0.236,0.226,0.220,0.123,0.079,southeast,1.3,No
2022/07/01,13:20,0.158,0.146,0.234,0.226,0.220,0.123,0.079,east-southeast,2.4,No
2022/07/01,13:30,0.159,0.146,0.235,0.227,0.220,0.124,0.079,east,2.3,No
2022/07/01,13:40,0.158,0.146,0.235,0.228,0.219,0.124,0.079,southeast,1.9,No
2022/07/01,13:50,0.159,0.146,0.235,0.228,0.219,0.125,0.080,east-southeast,2.3,No
2022/07/01,14:00,0.159,0.146,0.235,0.228,0.218,0.124,0.080,east-southeast,2.6,No
2022/07/01,14:10,0.159,0.148,0.234,0.227,0.219,0.124,0.078,east-southeast,2.6,No
2022/07/01,14:20,0.158,0.146,0.234,0.227,0.219,0.123,0.079,east-southeast,2.7,No
2022/07/01,14:30,0.159,0.146,0.235,0.227,0.218,0.123,0.078,east-southeast,2.2,No
2022/07/01,14:40,0.158,0.147,0.234,0.227,0.219,0.124,0.079,east-southeast,2.7,No
2022/07/01,14:50,0.158,0.146,0.233,0.225,0.218,0.123,0.078,southeast,2.4,No
2022/07/01,15:00,0.156,0.145,0.233,0.225,0.218,0.122,0.079,south-southeast,3.1,No
2022/07/01,15:10,0.156,0.145,0.234,0.226,0.220,0.123,0.079,southeast,2.5,No
2022/07/01,15:20,0.157,0.145,0.233,0.226,0.219,0.123,0.079,south-southeast,2.6,No
2022/07/01,15:30,0.157,0.145,0.235,0.225,0.219,0.124,0.078,south-southeast,3.2,No
2022/07/01,15:40,0.158,0.146,0.233,0.226,0.219,0.124,0.079,south,3.4,No
2022/07/01,15:50,0.157,0.146,0.235,0.226,0.218,0.123,0.079,south-southeast,2.8,No
2022/07/01,16:00,0.157,0.144,0.234,0.226,0.219,0.123,0.079,southeast,3.1,No
2022/07/01,16:10,0.158,0.145,0.233,0.225,0.219,0.123,0.079,south-southeast,2.8,No
2022/07/01,16:20,0.158,0.145,0.234,0.225,0.219,0.123,0.079,south-southeast,3.1,No
2022/07/01,16:30,0.158,0.145,0.233,0.226,0.220,0.124,0.079,south-southeast,2.3,No
2022/07/01,16:40,0.157,0.145,0.232,0.225,0.219,0.124,0.079,south,2.7,No
2022/07/01,16:50,0.158,0.145,0.233,0.225,0.221,0.123,0.078,south,2.4,No
2022/07/01,17:00,0.158,0.145,0.234,0.224,0.220,0.124,0.078,south-southeast,2.8,No
2022/07/01,17:10,0.158,0.147,0.234,0.224,0.220,0.123,0.079,south-southeast,2.5,No
2022/07/01,17:20,0.157,0.146,0.233,0.225,0.219,0.123,0.079,south-southeast,3.5,No
2022/07/01,17:30,0.157,0.145,0.233,0.226,0.220,0.122,0.078,south-southeast,3.2,No
2022/07/01,17:40,0.156,0.145,0.234,0.225,0.218,0.123,0.079,south-southeast,3.8,No
2022/07/01,17:50,0.156,0.146,0.233,0.225,0.219,0.123,0.078,south-southeast,3.8,No
2022/07/01,18:00,0.156,0.145,0.234,0.224,0.219,0.123,0.078,south,4.2,No
2022/07/01,18:10,0.157,0.145,0.234,0.224,0.219,0.123,0.080,south,4.1,No
2022/07/01,18:20,0.157,0.144,0.233,0.223,0.218,0.123,0.080,south,4.6,No
2022/07/01,18:30,0.157,0.145,0.232,0.225,0.217,0.124,0.079,south,5.7,No
2022/07/01,18:40,0.157,0.144,0.233,0.227,0.217,0.124,0.079,south,5.5,No
2022/07/01,18:50,0.157,0.147,0.234,0.227,0.218,0.123,0.078,south,3.8,No
2022/07/01,19:00,0.156,0.145,0.237,0.226,0.217,0.122,0.079,south-southeast,3.0,No
2022/07/01,19:10,0.157,0.146,0.237,0.225,0.218,0.124,0.078,south,4.3,No
2022/07/01,19:20,0.159,0.145,0.235,0.225,0.218,0.124,0.080,south,3.7,No
2022/07/01,19:30,0.158,0.147,0.235,0.226,0.220,0.124,0.079,south-southeast,3.9,No
2022/07/01,19:40,0.157,0.146,0.234,0.228,0.223,0.124,0.079,south-southeast,3.7,No
2022/07/01,19:50,0.156,0.145,0.238,0.226,0.220,0.124,0.080,south,3.5,No
2022/07/01,20:00,0.159,0.144,0.235,0.225,0.220,0.124,0.079,south,2.7,No
2022/07/01,20:10,0.159,0.146,0.234,0.229,0.218,0.124,0.079,south,3.2,No
2022/07/01,20:20,0.158,0.148,0.236,0.228,0.222,0.123,0.079,south,2.5,No
2022/07/01,20:30,0.157,0.146,0.236,0.227,0.223,0.124,0.080,south-southeast,2.7,No
2022/07/01,20:40,0.159,0.145,0.236,0.226,0.220,0.125,0.080,south,1.9,No
2022/07/01,20:50,0.159,0.148,0.235,0.229,0.219,0.124,0.079,south,2.8,No
2022/07/01,21:00,0.158,0.148,0.238,0.228,0.219,0.124,0.080,south,2.8,No
2022/07/01,21:10,0.157,0.147,0.236,0.225,0.223,0.125,0.080,south,4.0,No
2022/07/01,21:20,0.161,0.148,0.236,0.228,0.221,0.124,0.079,south-southwest,4.5,No
2022/07/01,21:30,0.159,0.148,0.235,0.228,0.219,0.124,0.079,south-southwest,5.0,No
2022/07/01,21:40,0.159,0.147,0.239,0.227,0.221,0.124,0.081,south,2.4,No
2022/07/01,21:50,0.157,0.146,0.237,0.226,0.223,0.124,0.080,south-southwest,2.8,No
2022/07/01,22:00,0.161,0.148,0.235,0.229,0.221,0.125,0.080,south-southwest,3.5,No
2022/07/01,22:10,0.159,0.147,0.236,0.227,0.219,0.125,0.080,south-southwest,3.5,No
2022/07/01,22:20,0.158,0.146,0.236,0.225,0.221,0.125,0.081,south-southwest,3.0,No
2022/07/01,22:30,0.159,0.148,0.235,0.228,0.223,0.124,0.080,south-southwest,3.1,No
2022/07/01,22:40,0.159,0.147,0.238,0.228,0.221,0.125,0.081,south-southwest,3.2,No
2022/07/01,22:50,0.160,0.147,0.237,0.226,0.219,0.125,0.080,south-southwest,3.3,No
2022/07/01,23:00,0.159,0.148,0.235,0.227,0.221,0.125,0.080,south-southwest,3.2,No
2022/07/01,23:10,0.160,0.148,0.237,0.230,0.222,0.126,0.080,southwest,3.1,No
2022/07/01,23:20,0.159,0.147,0.238,0.226,0.221,0.124,0.081,south-southwest,2.6,No
2022/07/01,23:30,0.158,0.148,0.236,0.227,0.219,0.124,0.080,south-southwest,3.3,No
2022/07/01,23:40,0.160,0.147,0.237,0.229,0.223,0.125,0.080,southwest,2.0,No
2022/07/01,23:50,0.160,0.146,0.238,0.226,0.222,0.124,0.080,south-southwest,1.8,No
